星链-3158 (STARLINK-3158 )

导读

STARLINK-3158是美国太空探索技术公司于2021年11月13日发射的星链卫星,属于星链星座组网卫星,是Starlink项目的组成部分,主要为全球提供低延迟、高速率的宽带互联网服务。作为低轨通信卫星,它运行在近地轨道,依托大规模星座部署,助力实现全球覆盖的网络接入,推动卫星互联网商业化应用。

Basic Information
目录编号:
49432
目录名称:
STARLINK-3158
国际标识:
2021-104AA
轨道中心:
EARTH
卫星名称:
星链-3158
卫星全名:
星链-3158 (STARLINK-3158 )
卫星状态:
在轨 (已飞行1678 天)
发射日期:
2021-11-13 UTC
国别 :
美国 (US)
星等 :
--
Orbit Information
数据来源 国际轨道数据 AOE轨道数据
星历时间 2026-06-18T06:05:15+0800
6小时前
查看轨道信息
2026-06-14T04:00:00+0800
4天前
查看轨道信息
半长轴 6917.911km 6917.907km
偏心率 0.0001424 0.0001924
轨道倾角 53.161° 53.159°
近地点辐角 87.737° 62.679°
升交点赤经 129.069° 147.440°
平近点角 272.378° 45.611°
近地点 538.788km 538.438km
远地点 540.76km 541.102km
周期 95.438分钟 95.438分钟
每日圈数 15.088303 15.088315
Detailed Information
固有亮度:
5
最大亮度:
2.5
卫星平台:
Starlink v1.5
覆盖范围:
全球
运营商:
太空探索技术公司
运营商所在国:
美国
制造商(研发单位):
太空探索技术公司
制造商所在国:
美国
使用方式:
暂无
Satellite Introduction
星链(Starlink)计划是由太空探索技术公司(SpaceX)提出的一个巨型低轨卫星互联网星座项目,计划在2019年至2024年间在太空搭建由约1.2万颗卫星组成的“星链”网络,其中1584颗将部署在地球上空550千米处的近地轨道,并从2020年开始工作。该卫星仍在工作。
2D Orbit Map
3D Orbit Map
Orbit Altitude Analysis Chart
Orbit Inclination Analysis Chart
Orbit Comprehensive Analysis Chart
View Comprehensive Chart